Regional Weather Roundup
Issued by NWS Grand Forks, ND

Home | Current Version | Previous Version | Text Only | Print | Product List | Glossary Off
Versions: 1 2 3 4 5 6 7 8 9 10 11 12 13 14 15 16 17 18 19 20 21 22 23 24 25 26 27 28 29 30 31 32 33 34 35 36 37 38 39 40 41 42 43 44 45 46 47 48 49 50

949
ASUS43 KFGF 230110
RWRFGF
PRAIRIE TO PINES  WEATHER ROUNDUP
NATIONAL WEATHER SERVICE EASTERN NORTH DAKOTA/GRAND FORKS ND
800 PM CDT SUN APR 22 2018

 **SATELLITE DATA USED TO AUGMENT SKY COVER AT AUTOMATED STATIONS**
 *****  WEATHER ACROSS EASTERN NORTH DAKOTA  *****

CITY           SKY/WX    TMP DP  RH WIND       PRES   REMARKS
GRAND FORKS    FAIR      56  47  71 S10       30.10F
GRAND FRKS AFB CLOUDY    58  46  63 S10       30.09F
GRAND FRKS NWS   N/A     58  45  61 S14       30.07F
DEVILS LAKE    CLOUDY    59  39  47 CALM      30.09S
FARGO          FAIR      60  40  47 S16       30.15R
WAHPETON ARPT  FAIR      54  37  54 S13       30.19S
$$

 ***** WEATHER ACROSS CENTRAL AND WESTERN NORTH DAKOTA  *****

CITY           SKY/WX    TMP DP  RH WIND       PRES   REMARKS
BISMARCK       CLOUDY    63  39  41 SE13      30.07R
MINOT          FAIR      62  27  26 SW6       30.07S
JAMESTOWN      FAIR      59  38  45 S14       30.09F
MINOT AFB      NOT AVBL
GARRISON         N/A     58  37  45 SE7       30.09S
WILLISTON      FAIR      63  25  23 NW12      30.08R
DICKINSON      FAIR      62  22  21 N6        30.07S
HETTINGER      FAIR      66  34  30 N6        30.07S
$$

 *****  OTHER AIRPORT OBSERVATIONS IN OUR AREA  *****

CITY           SKY/WX    TMP DP  RH WIND       PRES   REMARKS
WALHALLA       FAIR      59  39  47 SW5       30.08S
GRAFTON AIRPOR NOT AVBL
VALLEY CITY AR NOT AVBL
CANDO          MOCLDY    57  37  47 S3        30.10S
CAVALIER APRT    N/A     59  41  51 W6        30.08S
GWINNER          N/A     57  43  58 S8        30.16R
ROLLA          CLOUDY    54  39  58 SW7       30.08S
 ***** THE ABOVE OBSERVATIONS ARE NON NWS ARE NOT QUALITY
       CONTROLLED AND MAY MIS-REPORT RAIN FOR SNOW...
$$

  *****  WEATHER ACROSS NORTHERN MINNESOTA  *****

CITY           SKY/WX    TMP DP  RH WIND       PRES   REMARKS
FLAG ISLAND    FAIR      50  37  62 SW13      30.08S
WARROAD        CLOUDY    57  45  62 SW8       30.11S
ROSEAU         FAIR      57  46  67 SW12G18   30.10F
HALLOCK        FAIR      59  46  63 S10       30.08S
THF RVR FALLS  FAIR      57  42  57 SW10      30.14S
BAUDETTE       FAIR      57  40  52 SW12      30.12S
WASKISH        FAIR      48  36  61 SW9       30.16R
CROOKSTON      FAIR      57  46  67 SW9       30.13F
STEPHEN NDAWN    N/A     55  48  76 S8          N/A
GREENBUSH NDAW   N/A     54  46  76 S10         N/A
$$
  *****  WEATHER ACROSS CENTRAL AND WEST MINNESOTA  *****

CITY           SKY/WX    TMP DP  RH WIND       PRES   REMARKS
FOSSTON        CLOUDY    55  39  54 S12       30.16S
BEMIDJI        FAIR      56  32  39 SW7       30.17S
PARK RAPIDS    FAIR      55  37  50 SW12      30.19S
ELBOW LAKE     FAIR      51  39  61 S8        30.22S
WADENA         FAIR      54  37  54 SW6       30.21S
DETROIT LAKES  FAIR      54  36  50 S10       30.20S
MOORHEAD       FAIR      57  43  58 S12       30.17S
FERGUS FALLS   FAIR      54  39  58 S9        30.18S
MORRIS MN      FAIR      54  41  62 S5        30.22S
STAPLES        FAIR      54  34  47 S6        30.22S
$$
  *****  WEATHER ELSEWHERE ACROSS MINNESOTA  *****

CITY           SKY/WX    TMP DP  RH WIND       PRES   REMARKS
DULUTH         FAIR      54  30  40 S5        30.22R
INTRNTL FALLS  FAIR      59  31  34 SW7       30.13R
ELY            FAIR      55  25  30 SW6       30.19R
CLOQUET        FAIR      55  23  28 SW5       30.22S
WHEATON        FAIR      54  37  54 SE10      30.22S
BRAINERD       FAIR      57  32  38 S9        30.22S
HIBBING        FAIR      55  28  35 S6        30.19S
ALEXANDRIA     FAIR      56  40  55 S8        30.23S
SAINT CLOUD    FAIR      56  38  50 S5        30.23S
MINNEAPOLIS    FAIR      59  36  42 S7        30.24S
$$

  *****  WEATHER ACROSS SOUTH DAKOTA  *****

CITY           SKY/WX    TMP DP  RH WIND       PRES   REMARKS
SIOUX FALLS    FAIR      55  38  52 E10       30.19S
BROOKINGS      FAIR      52  39  61 SE10      30.21S
WATERTOWN      FAIR      51  41  68 SE9       30.19S
HURON          FAIR      57  39  51 SW5       30.17
SISSETON         N/A     54  38  54 S12       30.18S
ABERDEEN       FAIR      58  35  42 S12       30.16S
MITCHELL       FAIR      60  38  43 S3        30.17S
PIERRE         FAIR      59  40  49 SE13      30.11R
MOBRIDGE       FAIR      61  40  45 SE12      30.08S
RAPID CITY     FAIR      61  38  42 SE8       30.06S
$$

  *****  SOME WEATHER IN NEARBY STATES *****

CITY           SKY/WX    TMP DP  RH WIND       PRES   REMARKS
GLASGOW MT     FAIR      62  25  24 VRB7      30.09S
GREAT FALLS MT FAIR      53  16  23 N16       30.11R
CHEYENNE WY    FAIR      57  30  35 E13       30.11S
SCOTTSBLUFF NE FAIR      60  39  45 SE10      30.08S
OMAHA NE       MOCLDY    65  31  28 E8        30.14R
DES MOINES IA  MOCLDY    64  18  17 E8        30.16F
DAVENPORT IA   CLOUDY    58  28  32 E13       30.22R
CHICAGO IL     MOCLDY    51  26  37 NE12      30.26R
EAU CLAIRE WI  FAIR      57  30  35 SE6       30.24S
LA CROSSE WI   FAIR      57  28  33 SE5       30.24S
$$

  *****  SOME NATIONAL WEATHER *****

CITY           SKY/WX    TMP DP  RH WIND       PRES   REMARKS
LA GUARDIA NY  FAIR      54  23  30 S17       30.36R
RALEIGH NC     CLOUDY    63  41  44 E6        30.30R
ATLANTA GA     LGT RAIN  60  58  92 E24G37    30.03F
NEW ORLEANS LA FAIR      74  65  73 NW7       29.87R
OKLAHOMA CITY  FAIR      57  45  64 N16       30.03R
ALBUQUERQUE NM MOCLDY    72  27  18 S14       30.04S
SALT LAKE CITY PTSUNNY   75  29  18 SE5       29.92F
LOS ANGELES CA FAIR      65  57  75 W12       29.90S
BOISE ID       FAIR      62  26  25 NW17      30.01F
SEATTLE WA     FAIR      58  37  45 N12       30.32F
$$

*** WEATHER ACROSS MANITOBA...SASKATCHEWAN AND ONTARIO ***
                ***ONTARIO***

CITY           SKY/WX    TMP DP  RH WIND       PRES   REMARKS
GERALDTON      PTCLDY    48  16  27 S7        30.18F
THUNDER BAY    PTCLDY    41  27  56 NE8       30.21R
SIOUX LOOKOUT  MOCLDY    54  30  40 SW5       30.07S
TORONTO        PTCLDY    54  14  20 VRB2      30.38R
BIG TROUT LK   PTCLDY    45  30  57 S8        29.83F
PICKLE LAKE    MOCLDY    52  28  40 SW12G20   30.00F
DRYDEN         MOCLDY    55  28  35 SW8       30.07F
KENORA         MOCLDY    52  36  54 SW12      30.07S
$$
                *** MANITOBA***

CITY           SKY/WX    TMP DP  RH WIND       PRES   REMARKS
BRANDON        PTCLDY    57  36  44 W14G20    30.02S
DAUPHIN        CLEAR     55  32  41 W20G26    29.96S
ISLAND LAKE    MOCLDY    54  32  43 SW10G18   29.74S
PILOT MOUND      N/A     54  32  43 SW8         N/A
THE PAS        LGT RAIN  43  36  75 W18G31    29.77R
THOMPSON       LGT RAIN  39  37  93 SW14      29.55R FOG
WINNIPEG       MOCLDY    61  34  36 SW12G17   30.02F
LYNN LAKE      LGT SNOW  28  28 100 N12G18    29.67R WCI  18
CHURCHILL      FRZ RAIN  28  27  93 E29G35    29.69F FOG     WCI  13
GILLAM         LGT RAIN  43  39  87 S13G22    29.55F
$$
                ***SASKATCHEWAN***

CITY           SKY/WX    TMP DP  RH WIND       PRES   REMARKS
ESTEVAN        PTCLDY    59  25  27 NW14G23   30.06R
KINDERSLEY     PTSUNNY   48  32  53 NW16G23   30.13R
LLOYDMINSTER   PTSUNNY   43  34  70 NW17      30.09R
PRINCE ALBERT  PTSUNNY   46  36  66 NW18G28   29.99R
REGINA         PTCLDY    54  25  32 W23       30.09R
YORKTON        CLEAR     52  32  46 W16       29.99R
N. BATTLEFORD  CLOUDY    45  34  65 W16G23    30.10R
LA RONGE       LGT SNOW  34  32  93 NW18G26   29.89R WCI  23
SASKATOON      PTSUNNY   46  34  61 W22G29    30.08R
SWIFT CURRENT  PTSUNNY   50  25  37 NW15G21   30.11R
$$
NOTE: THESE ARE AUTOMATED STATIONS WITH LIMITED QUALITY CONTROL
      "FAIR" INDICATES FEW OR NO CLOUDS BELOW 12,000 FEET WITH NO
      SIGNIFICANT WEATHER AND/OR OBSTRUCTIONS TO VISIBILITY.
      SKY/WX - SKY CONDITION AND SIGNIFICANT WEATHER.
      TMP - AIR TEMPERATURE.    DP   - DEWPOINT TEMPERATURE.
      RH  - RELATIVE HUMIDITY.  PRES - PRESSURE.
      HX  - HEAT INDEX.         WCI  - WIND CHILL INDEX.
$




USA.gov is the U.S. government's official web portal to all federal, state and local government web resources and services.